Pula, Croatia

11:20 AM CET on January 16, 2018 (GMT +0100)
Pula

Weather History for LDPL - September, 2013

Change the Weather History Date:

Friday, September 27, 2013

  Actual Average Record
Temperature  
Mean Temperature 67 °F -  
Max Temperature 73 °F - - ()
Min Temperature 61 °F - - ()
Cooling Degree Days 2    
Growing Degree Days 17 (Base 50)    
Moisture  
Dew Point 62 °F    
Average Humidity 81    
Maximum Humidity 94    
Minimum Humidity 64    
Precipitation  
Precipitation 0.00 in - - ()
Sea Level Pressure  
Sea Level Pressure 29.96 in    
Wind  
Wind Speed 5 mph ()    
Max Wind Speed 9 mph    
Max Gust Speed -    
Visibility 7.4 miles    
Events      
T = Trace of Precipitation, MM = Missing Value Source: Averaged Metar Reports

Daily Weather History Graph

Daily Weather History Graph

Search for Another Location

Airport or City:

Trip Planner

Search our weather history database for the weather conditions in past years. The results will help you decide how hot, cold, wet, or windy it might be!

Date:

Astronomy

Sep. 27, 2013 Rise Set
Actual Time 6:57 AM CEST 6:52 PM CEST
Civil Twilight 6:28 AM CEST 7:21 PM CEST
Nautical Twilight 5:54 AM CEST 7:55 PM CEST
Astronomical Twilight 5:19 AM CEST 8:30 PM CEST
Moon No Moon Rise 2:32 PM CEST (9/27)
Length of Visible Light 12h 53m
Length of Day
11h 54m
Waning Gibbous, 48% of the Moon is Illuminated
Sep 27
Waning Gibbous
Oct 5
New
Oct 12
First Quarter
Oct 19
Full
Oct 27
Last Quarter

Hourly Weather History & Observations

Time (CEST) Temp. Dew Point Humidity Pressure Visibility Wind Dir Wind Speed Gust Speed Precip Events Conditions
12:00 AM 66.2 °F 60.8 °F 83% 29.98 in 6.2 mi East 5.8 mph - N/A   Mostly Cloudy
12:30 AM 66.2 °F 62.6 °F 88% 29.98 in 6.2 mi ENE 4.6 mph - N/A   Mostly Cloudy
1:00 AM 66.2 °F 62.6 °F 88% 29.98 in 6.2 mi East 4.6 mph - N/A   Mostly Cloudy
1:30 AM 66.2 °F 62.6 °F 88% 29.98 in 6.2 mi East 4.6 mph - N/A   Mostly Cloudy
2:00 AM 66 °F 62 °F 82% 29.99 in 12 mi East 4.5 mph - -   Mostly Cloudy
2:00 AM 66.2 °F 62.6 °F 88% 29.98 in 6.2 mi East 4.6 mph - N/A   Mostly Cloudy
2:30 AM 66.2 °F 62.6 °F 88% 29.98 in 6.2 mi East 4.6 mph - N/A   Mostly Cloudy
3:00 AM 66.2 °F 62.6 °F 88% 29.98 in 6.2 mi East 4.6 mph - N/A   Mostly Cloudy
3:30 AM 66.2 °F 62.6 °F 88% 29.98 in 6.2 mi East 4.6 mph - N/A   Mostly Cloudy
4:00 AM 66.2 °F 60.8 °F 83% 29.98 in 6.2 mi East 6.9 mph - N/A   Mostly Cloudy
4:30 AM 66.2 °F 60.8 °F 83% 29.95 in 6.2 mi East 5.8 mph - N/A   Mostly Cloudy
5:00 AM 66 °F 61 °F 78% 29.97 in 12 mi East 4.5 mph - -   Mostly Cloudy
5:00 AM 66.2 °F 60.8 °F 83% 29.95 in 6.2 mi East 4.6 mph - N/A   Mostly Cloudy
5:30 AM 66.2 °F 60.8 °F 83% 29.95 in 6.2 mi East 4.6 mph - N/A   Mostly Cloudy
6:00 AM 66 °F 60 °F 76% 29.96 in 12 mi East 6.7 mph - -   Partly Cloudy
6:00 AM 66.2 °F 60.8 °F 83% 29.95 in 6.2 mi East 5.8 mph - N/A   Scattered Clouds
6:30 AM 66.2 °F 60.8 °F 83% 29.95 in 6.2 mi ENE 4.6 mph - N/A   Scattered Clouds
7:00 AM 65 °F 60 °F 80% 29.96 in 16 mi East 6.7 mph - -   Overcast
7:00 AM 66.2 °F 60.8 °F 83% 29.95 in 6.2 mi East 6.9 mph - N/A   Partly Cloudy
7:30 AM 66.2 °F 60.8 °F 83% 29.95 in 6.2 mi East 5.8 mph - N/A   Partly Cloudy
8:00 AM 66 °F 60 °F 76% 29.97 in 16 mi East 4.5 mph - -   Scattered Clouds
8:00 AM 66.2 °F 60.8 °F 83% 29.95 in 6.2 mi East 4.6 mph - N/A   Partly Cloudy
8:30 AM 68.0 °F 60.8 °F 78% 29.98 in 6.2 mi East 5.8 mph - N/A   Partly Cloudy
9:00 AM 68.0 °F 60.8 °F 78% 29.98 in 6.2 mi East 6.9 mph - N/A   Partly Cloudy
9:30 AM 68.0 °F 60.8 °F 78% 29.98 in 6.2 mi East 4.6 mph - N/A   Scattered Clouds
10:00 AM 69.8 °F 60.8 °F 73% 29.98 in 6.2 mi East 6.9 mph - N/A   Partly Cloudy
10:30 AM 69.8 °F 60.8 °F 73% 29.98 in 6.2 mi East 6.9 mph - N/A   Partly Cloudy
11:00 AM 70 °F 61 °F 66% 29.99 in 16 mi East 6.7 mph - -   Partly Cloudy
11:00 AM 69.8 °F 60.8 °F 73% 29.98 in 6.2 mi East 6.9 mph - N/A   Partly Cloudy
11:30 AM 69.8 °F 60.8 °F 73% 29.98 in 6.2 mi East 8.1 mph - N/A   Partly Cloudy
12:00 PM 71.6 °F 60.8 °F 69% 29.98 in 6.2 mi East 8.1 mph - N/A   Partly Cloudy
12:30 PM 71.6 °F 62.6 °F 73% 29.98 in 6.2 mi East 8.1 mph - N/A   Scattered Clouds
1:00 PM 71.6 °F 62.6 °F 73% 29.98 in 6.2 mi East 6.9 mph - N/A   Scattered Clouds
1:30 PM 69.8 °F 62.6 °F 78% 29.98 in 6.2 mi East 6.9 mph - N/A   Mostly Cloudy
2:00 PM 71 °F 61 °F 64% 29.97 in 12 mi East 8.9 mph - -   Mostly Cloudy
2:00 PM 71.6 °F 60.8 °F 69% 29.95 in 6.2 mi East 9.2 mph - N/A   Partly Cloudy
2:30 PM 69.8 °F 62.6 °F 78% 29.95 in 6.2 mi East 6.9 mph - N/A   Scattered Clouds
3:00 PM 69.8 °F 62.6 °F 78% 29.95 in 4.3 mi East 6.9 mph - N/A   Partly Cloudy
3:30 PM 69.8 °F 62.6 °F 78% 29.95 in 6.2 mi ESE 4.6 mph - N/A   Partly Cloudy
4:00 PM 71.6 °F 64.4 °F 78% 29.95 in 6.2 mi Variable 5.8 mph - N/A   Scattered Clouds
4:30 PM 71.6 °F 66.2 °F 83% 29.95 in 6.2 mi ESE 6.9 mph - N/A   Scattered Clouds
5:00 PM 71 °F 65 °F 75% 29.94 in 11 mi East 6.7 mph - -   Partly Cloudy
5:00 PM 71.6 °F 64.4 °F 78% 29.95 in 6.2 mi East 6.9 mph - N/A   Partly Cloudy
5:30 PM 69.8 °F 62.6 °F 78% 29.95 in 6.2 mi East 9.2 mph - N/A   Partly Cloudy
6:00 PM 69.8 °F 62.6 °F 78% 29.92 in 6.2 mi East 6.9 mph - N/A   Partly Cloudy
6:30 PM 69.8 °F 62.6 °F 78% 29.92 in - East 6.9 mph - N/A   Clear
7:00 PM 66.2 °F 60.8 °F 83% 29.92 in 6.2 mi East 4.6 mph - N/A   Partly Cloudy
7:30 PM 64.4 °F 60.8 °F 88% 29.95 in 6.2 mi Variable 3.5 mph - N/A   Partly Cloudy
8:00 PM 64 °F 60 °F 84% 29.95 in 12 mi East 4.5 mph - -   Partly Cloudy
8:00 PM 64.4 °F 60.8 °F 88% 29.95 in - East 4.6 mph - N/A   Clear
8:30 PM 66.2 °F 62.6 °F 88% 29.95 in 6.2 mi East 5.8 mph - N/A   Partly Cloudy
9:00 PM 66.2 °F 62.6 °F 88% 29.95 in 6.2 mi East 4.6 mph - N/A   Mostly Cloudy
9:30 PM 68.0 °F 62.6 °F 83% 29.95 in 6.2 mi East 4.6 mph - N/A   Scattered Clouds
10:00 PM 68.0 °F 62.6 °F 83% 29.95 in 6.2 mi East 4.6 mph - N/A   Mostly Cloudy
10:30 PM 68.0 °F 62.6 °F 83% 29.95 in 6.2 mi Variable 3.5 mph - N/A   Mostly Cloudy
11:00 PM 67 °F 63 °F 84% 29.96 in 12 mi East 2.2 mph - -   Mostly Cloudy
11:00 PM 66.2 °F 62.6 °F 88% 29.95 in 6.2 mi Variable 2.3 mph - N/A   Mostly Cloudy
11:30 PM 66.2 °F 64.4 °F 94% 29.95 in 6.2 mi East 4.6 mph - N/A   Mostly Cloudy